TimeEST,TemperatureF,Dew PointF,Humidity,Sea Level PressureIn,VisibilityMPH,Wind Direction,Wind SpeedMPH,Gust SpeedMPH,PrecipitationIn,Events,Conditions,WindDirDegrees,DateUTC
12:54 AM,44.1,35.1,71,30.12,10.0,NNW,4.6,-,N/A,,Scattered Clouds,340,2013-11-03 04:54:00
1:54 AM,39.9,35.1,83,30.13,10.0,WNW,5.8,-,N/A,,Clear,290,2013-11-03 05:54:00
1:54 AM,41.0,34.0,76,30.14,10.0,Calm,Calm,-,N/A,,Clear,0,2013-11-03 06:54:00
2:54 AM,39.0,34.0,82,30.16,10.0,West,3.5,-,N/A,,Scattered Clouds,270,2013-11-03 07:54:00
3:54 AM,39.0,34.0,82,30.17,10.0,NNW,4.6,-,N/A,,Clear,330,2013-11-03 08:54:00
4:54 AM,37.9,33.1,83,30.20,10.0,NW,5.8,-,N/A,,Clear,320,2013-11-03 09:54:00
5:54 AM,37.0,33.1,86,30.22,6.0,NW,3.5,-,N/A,,Clear,310,2013-11-03 10:54:00
6:54 AM,37.0,34.0,89,30.25,10.0,Calm,Calm,-,N/A,,Clear,0,2013-11-03 11:54:00
7:54 AM,37.0,33.1,86,30.28,7.0,NNW,3.5,-,N/A,,Clear,330,2013-11-03 12:54:00
8:54 AM,42.1,37.9,85,30.30,8.0,North,4.6,-,N/A,,Clear,350,2013-11-03 13:54:00
9:54 AM,46.9,39.9,77,30.31,10.0,NE,5.8,-,N/A,,Clear,50,2013-11-03 14:54:00
10:54 AM,51.1,39.9,66,30.33,10.0,NE,5.8,-,N/A,,Clear,50,2013-11-03 15:54:00
11:54 AM,52.0,37.9,59,30.33,10.0,North,9.2,-,N/A,,Scattered Clouds,10,2013-11-03 16:54:00
12:54 PM,52.0,35.1,53,30.32,10.0,Calm,Calm,-,N/A,,Scattered Clouds,0,2013-11-03 17:54:00
1:54 PM,54.0,35.1,49,30.29,10.0,ESE,6.9,-,N/A,,Scattered Clouds,120,2013-11-03 18:54:00
2:54 PM,53.1,36.0,52,30.29,10.0,SE,5.8,-,N/A,,Partly Cloudy,130,2013-11-03 19:54:00
3:54 PM,52.0,35.1,53,30.30,10.0,ESE,5.8,-,N/A,,Clear,120,2013-11-03 20:54:00
4:54 PM,53.1,37.0,55,30.30,10.0,ENE,6.9,-,N/A,,Mostly Cloudy,70,2013-11-03 21:54:00
5:54 PM,48.9,35.1,59,30.31,10.0,East,5.8,-,N/A,,Partly Cloudy,90,2013-11-03 22:54:00
6:54 PM,46.9,36.0,66,30.32,10.0,East,6.9,-,N/A,,Clear,80,2013-11-03 23:54:00
7:54 PM,46.0,36.0,68,30.31,10.0,East,9.2,-,N/A,,Clear,90,2013-11-04 00:54:00
8:54 PM,46.0,35.1,66,30.31,10.0,East,9.2,-,N/A,,Clear,100,2013-11-04 01:54:00
9:54 PM,46.0,35.1,66,30.37,10.0,Calm,Calm,-,N/A,,Clear,0,2013-11-04 02:54:00
10:54 PM,43.0,35.1,74,30.35,10.0,East,6.9,-,N/A,,Clear,90,2013-11-04 03:54:00